Location: *
(48.4667°N, 11.9333°E)
Time: 09:33:42
(UTC+00:00)

Daily predictions for brighter satellites

Satellite Brightness Start Highest point End
(mag) Time Altitude Azimuth Time Altitude Azimuth Time Altitude Azimuth
Meteor 2-3 Rocket 3.8 15:57:46 10° N 16:03:35 66° ENE 16:09:18 10° SSE
Cosmos 1408 Rocket 4.1 15:59:58 10° NNW 16:04:23 68° W 16:08:47 10° S
CZ-3B R/B 2.8 16:03:29 10° W 16:05:12 33° NNW 16:07:32 10° NE
Cosmos 2123 Rocket 4.0 16:00:40 10° S 16:06:51 80° E 16:13:04 10° N
Cosmos 1500 Rocket 3.5 16:05:45 10° N 16:10:09 67° ENE 16:14:28 10° SSE
GEOS 3 Rocket 4.3 16:05:41 10° NE 16:10:32 38° ESE 16:15:25 10° S
Helios 1A Rocket 4.1 16:06:42 10° S 16:10:44 49° W 16:14:47 10° NNW
TSX-5 4.1 16:08:11 10° SSW 16:12:09 85° ESE 16:17:20 10° NNE
Cosmos 1725 Rocket 4.2 16:06:38 10° N 16:13:00 83° W 16:19:18 10° S
Feng Yun 1-1 Rocket 4.2 16:08:41 10° SSE 16:14:14 67° ENE 16:19:41 10° N
CZ-4B R/B 3.6 16:11:52 10° N 16:14:45 27° WNW 16:17:39 10° SW
Cosmos 1633 Rocket 4.5 16:11:44 10° NNE 16:14:47 18° ENE 16:17:49 10° ESE
USA 215 3.8 16:09:36 10° ENE 16:15:42 44° N 16:21:48 10° WNW
Cosmos 2084 3.5 16:13:29 10° NW 16:17:51 85° SW 16:22:04 10° SE
Cosmos 1607 3.9 16:14:04 10° NW 16:20:16 70° NE 16:26:32 10° SE
USA 229 DEB 4.1 16:15:13 10° S 16:21:19 43° ESE 16:27:42 10° NE
USA 229 4.1 16:15:21 10° S 16:21:26 42° ESE 16:27:47 10° NE
Cosmos 1825 3.2 16:19:34 10° NNW 16:23:16 50° W 16:26:56 10° S
BREEZE-M DEB (TANK) 3.4 16:12:58 10° WSW 16:24:56 85° SSE 16:28:10 12° ENE
COSMO-SKYMED 1 3.9 16:22:03 10° NE 16:25:15 20° E 16:28:25 10° SE
Cosmos 1633 3.7 16:23:20 10° NNE 16:26:18 23° ENE 16:29:15 10° SE
Cosmos 1666 Rocket 4.5 16:22:43 10° NNE 16:26:25 26° ENE 16:30:05 10° SE
Cosmos 1656 4.4 16:21:48 10° SSE 16:26:38 32° ESE 16:31:27 10° NE
NOSS 3-1 (A) 4.4 16:22:29 10° SSE 16:26:55 25° ESE 16:31:30 11° ENE
NOSS 3-1 (C) 3.9 16:21:55 10° S 16:26:59 39° ESE 16:32:45 10° NE
Sich 1 3.6 16:23:47 10° N 16:27:45 34° ENE 16:31:45 10° SE
PSLV R/B 4.0 16:23:43 10° NNE 16:27:58 89° WNW 16:32:11 10° SSW
Envisat 3.3 16:27:31 10° SE 16:32:20 45° ENE 16:37:10 10° N
TELKOM 3 3.6 16:31:03 10° W 16:33:11 46° SSW 16:35:14 10° SE
ALOS 4.4 16:30:27 10° SSW 16:34:34 31° W 16:38:44 10° NNW
Cosmos 1356 Rocket 3.9 16:35:36 10° SSE 16:39:28 39° E 16:43:25 10° NNE
SeaSat 1 2.4 16:36:43 10° SE 16:41:37 69° ENE 16:46:32 10° NNW
SMAP 3.2 16:37:17 10° S 16:41:57 79° WSW 16:46:38 10° NNW
Cosmos 2219 3.5 16:36:41 10° NNW 16:42:18 74° WSW 16:47:53 10° SSE
Cosmos 2369 Rocket 4.4 16:41:38 10° W 16:45:19 18° NW 16:49:01 10° N
Lacrosse 4 Rocket 2.5 16:45:17 10° SSE 16:48:35 24° ESE 16:49:57 20° E
Cosmos 1869 3.2 16:46:41 10° S 16:50:35 64° E 16:54:30 10° NNE
YAOGAN 6 3.0 16:48:10 10° SE 16:51:24 36° ENE 16:54:39 10° N
Cosmos 2221 3.1 16:47:17 10° SSW 16:51:33 61° WNW 16:55:53 10° N
CSL-04 Rocket 4.0 16:48:30 10° SE 16:53:26 39° ENE 16:58:21 10° N
YAOGAN 1 3.2 16:50:50 10° SE 16:54:44 34° ENE 16:58:39 10° N
Geosat 4.0 16:53:38 10° NNE 16:58:40 67° ESE 17:03:40 10° SSW
Cosmos 2034 Rocket 4.2 16:53:38 10° N 16:59:45 47° ENE 17:05:51 10° SSE
Cosmos 1980 Rocket 3.4 16:56:07 10° SE 17:00:06 20° E 17:00:31 20° E
CZ-4 R/B 1.6 16:56:48 10° SE 17:00:47 47° ENE 17:04:44 10° N
Cosmos 1238 Rocket 4.2 16:57:02 10° NNW 17:01:21 43° W 17:04:55 10° SSW
Cosmos 2227 Rocket 2.3 16:56:12 10° NNW 17:01:55 82° WSW 17:07:34 10° SSE
Cosmos 2297 Rocket 2.4 16:56:21 10° NNW 17:02:01 77° WSW 17:07:39 10° SSE
ERBS 3.2 16:59:09 10° SSW 17:02:08 31° SE 17:02:51 28° ESE
NOSS 8 (A) 4.4 17:00:31 10° SW 17:03:38 67° NW 17:05:14 25° NNE
CENTAUR R/B 4.2 16:58:54 10° NW 17:04:41 26° N 17:09:25 15° NE
Cosmos 1680 Rocket 4.1 17:04:04 10° SSE 17:08:43 34° ESE 17:10:57 24° ENE
Cosmos 2344 4.2 17:02:07 10° WSW 17:09:30 56° NW 17:17:42 11° NE
Okean-O 3.0 17:06:03 10° S 17:10:28 66° WSW 17:14:54 10° NNW
FengYun 1-2 T 4.1 17:06:20 10° SSE 17:11:50 75° ENE 17:17:20 10° NNW
SKYMED 2 3.6 17:09:23 10° NNE 17:13:41 57° E 17:17:57 10° S
Cosmos 1939 Rocket 3.8 17:14:58 30° NE 17:14:58 30° NE 17:18:11 10° N
Ariane Rocket 3.7 17:14:23 28° E 17:15:23 30° ENE 17:19:47 10° N
Cosmos 2369 3.8 17:15:19 10° S 17:20:48 52° ESE 17:24:08 23° NE
ATLAS 3B R/B 4.2 17:17:35 10° NW 17:22:33 21° N 17:25:37 16° NE
Genesis I 4.4 17:19:39 10° WSW 17:23:27 39° NW 17:25:52 19° NNE
Tsikada Rocket 4.3 17:18:14 10° SSE 17:24:08 42° E 17:30:07 10° NNE
Cosmos 2263 Rocket 3.1 17:20:17 10° NNW 17:24:58 26° NE 17:25:10 26° NE
H-2A R/B 4.0 17:28:54 14° NNE 17:28:54 14° NNE 17:30:05 10° NNE
Cosmos 2082 3.8 17:24:09 10° NNW 17:29:47 79° WSW 17:35:24 10° SSE
NOAA 15 4.5 17:24:29 10° SSE 17:29:48 80° ENE 17:35:07 10° NNW
Cosmos 923 Rocket 3.9 17:28:04 10° SSW 17:33:15 70° ESE 17:36:20 25° NNE
Cosmos 1624 Rocket 4.1 17:32:15 10° NNW 17:37:31 54° ENE 17:39:08 39° ESE
Cosmos 2056 Rocket 3.6 17:32:43 10° NNW 17:37:44 51° ENE 17:38:47 44° E
Cosmos 1697 Rocket 2.6 17:33:45 10° SSW 17:39:21 67° ESE 17:42:03 31° NE
ATLAS 5 CENTAUR R/B 3.6 17:35:01 10° NW 17:40:30 43° WSW 17:46:41 10° S
Cosmos 2278 3.7 17:35:00 10° S 17:40:31 56° ESE 17:42:21 39° ENE
Cosmos 1862 3.7 17:37:37 10° NNW 17:41:33 63° W 17:45:29 10° S
Cosmos 1464 Rocket 4.4 17:42:24 10° NNW 17:48:29 61° W 17:54:30 10° S
BREEZE-M DEB (TANK) 3.5 17:45:45 10° WNW 17:47:37 34° WNW 17:47:37 34° WNW
GEOS 3 Rocket 4.3 17:45:35 23° NNE 17:48:42 52° NW 17:53:47 10° WSW
Cosmos 1633 Rocket 3.8 17:48:38 10° NNW 17:52:56 54° W 17:57:15 10° S
IRS-1A Rocket 4.2 17:55:49 51° ESE 17:56:53 60° ENE 18:02:32 10° N
Cosmos 2227 4.3 17:51:42 10° NNW 17:57:23 54° NE 17:57:32 53° ENE
USA 215 3.2 17:56:07 45° E 17:58:14 71° NNE 18:04:45 10° NW
COSMO-SKYMED 1 3.5 17:57:28 10° N 18:01:40 48° WNW 18:05:51 10° SW
Meteor 1-25 Rocket 4.4 17:56:46 10° N 18:01:40 53° NE 18:01:40 53° NE
DMSP B5D1-3 4.4 18:03:20 63° NE 18:04:04 75° ESE 18:09:13 10° S
NOSS 2-3 (E) 3.7 18:04:50 10° SW 18:08:54 76° SSW 18:08:54 76° SSW
Cosmos 1328 Rocket 4.0 18:05:48 10° SSW 18:10:11 62° WNW 18:11:27 42° NNW
NOAA 11 4.3 18:06:18 10° S 18:11:43 74° WSW 18:17:11 10° NNW
USA 229 DEB 4.2 18:05:40 10° WSW 18:12:09 54° NW 18:15:39 29° NNE
USA 229 4.2 18:05:46 10° WSW 18:12:15 54° NW 18:15:43 29° NNE
Meteor 1-20 Rocket 4.2 18:06:24 10° N 18:11:49 64° NE 18:11:49 64° NE
Cosmos 1151 Rocket 3.4 18:08:37 10° SSW 18:12:56 63° WNW 18:13:21 59° NW
NOSS 3-1 (A) 3.5 18:11:27 10° SW 18:17:05 70° NW 18:18:58 46° NNE
NOSS 3-1 (C) 4.0 18:12:04 10° WSW 18:17:38 51° NW 18:20:15 33° NNE
NOSS 2-3 (D) 4.0 18:14:18 10° SW 18:17:54 61° SW 18:17:54 61° SW
Lacrosse 4 Rocket 2.7 18:23:11 10° WSW 18:26:18 37° W 18:26:18 37° W
CZ-4 R/B 4.1 18:33:05 10° SW 18:36:03 19° W 18:38:58 10° NW
Cosmos 1980 Rocket 2.6 18:37:47 10° SSW 18:42:21 57° SW 18:42:21 57° SW
Ariane Rocket 4.1 18:54:36 42° W 18:54:36 42° W 18:59:03 10° NNW
CENTAUR R/B 3.8 18:50:31 10° NW 18:56:35 38° NNE 18:56:35 38° NNE
USA 238 DEB 4.4 18:56:46 10° NW 19:02:04 48° N 19:02:04 48° N
USA 238 4.4 18:56:52 10° NW 19:02:10 47° N 19:02:10 47° N
H-2A R/B 4.3 19:09:31 17° NNW 19:09:31 17° NNW 19:10:43 10° NNW
Cosmos 2263 Rocket 3.6 19:03:50 10° NNW 19:06:52 33° NW 19:06:52 33° NW
NOSS 3-2 (A) 4.5 19:03:18 10° NW 19:08:42 49° N 19:08:42 49° N
ATLAS 3B R/B 4.1 19:09:15 10° NW 19:12:52 27° N 19:12:52 27° N
Cosmos 1697 Rocket 4.5 19:19:05 10° WSW 19:23:49 27° NW 19:23:49 27° NW
USA 215 4.4 19:43:29 37° W 19:43:29 37° W 19:47:44 10° WNW
